User: anonymous   Login
Location: Caltech
(34.1382°N, 118.1253°W)
Time: 06:22:25
(UTC-07:00)
Language:

Cosmos 44 Rocket - Orbit

View from above orbital plane
View from above orbital plane
View from above satellite
View from above satellite

Ground track
Ground track

The orbit data is extracted from the following two-line orbital elements,

1 00877U 64053B   16180.21434322 -.00000086  00000-0  79327-5 0  9995
2 00877  65.0776 246.5740 0082854 253.8188 105.3781 14.59246125749863
Epoch (UTC): 28 June 2016 05:08:39
Eccentricity: 0.0082854
inclination: 65.0776°
perigee height: 637 km
apogee height: 754 km
right ascension of ascending node: 246.5740°
argument of perigee: 253.8188°
revolutions per day: 14.59246125
mean anomaly at epoch: 105.3781°
orbit number at epoch: 74986

The dashed part of the orbit path shows where the satellite is in the earth's shadow,  

DLR